BLY2100 EGCC-EGPD

Flight info

Callsign BLY2100
Flight time 0h 47m
Altitude 25000
Route POL P17 MEJAC DCT MADAD/N0376F240 DCT NEXUS P18 EPCAN
Aircraft A320/M-SDE3FGHIRWY/LB1

Departure

Time 2026-05-04 21:18
Airport Manchester Airport (EGCC)

Arrival

Time 2026-05-04 22:05
Airport Aberdeen International Airport (EGPD)
Time Latitude Longitude Altitude Speed Heading
2026-05-04 20:31 53.36889 -2.28786 255 ft 0 kts 135°
2026-05-04 21:02 53.36899 -2.28802 260 ft 4 kts 135°
2026-05-04 21:02 53.36918 -2.28833 254 ft 3 kts 135°
2026-05-04 21:02 53.36935 -2.28859 255 ft 4 kts 153°
2026-05-04 21:03 53.36959 -2.28867 255 ft 4 kts 198°
2026-05-04 21:03 53.36981 -2.28845 258 ft 4 kts 226°
2026-05-04 21:03 53.36995 -2.28818 257 ft 0 kts 225°
2026-05-04 21:07 53.36990 -2.28828 257 ft 4 kts 225°
2026-05-04 21:07 53.36966 -2.28868 255 ft 6 kts 226°
2026-05-04 21:07 53.36927 -2.28934 255 ft 10 kts 225°
2026-05-04 21:08 53.36875 -2.29023 255 ft 12 kts 224°
2026-05-04 21:08 53.36803 -2.29093 253 ft 11 kts 200°
2026-05-04 21:08 53.36734 -2.29110 255 ft 10 kts 156°
2026-05-04 21:08 53.36678 -2.29018 255 ft 12 kts 135°
2026-05-04 21:09 53.36627 -2.28896 255 ft 13 kts 114°
2026-05-04 21:09 53.36585 -2.28789 255 ft 11 kts 119°
2026-05-04 21:09 53.36533 -2.28683 255 ft 13 kts 134°
2026-05-04 21:09 53.36467 -2.28570 255 ft 14 kts 135°
2026-05-04 21:10 53.36409 -2.28432 255 ft 15 kts 111°
2026-05-04 21:10 53.36351 -2.28297 255 ft 15 kts 135°
2026-05-04 21:10 53.36281 -2.28180 255 ft 13 kts 135°
2026-05-04 21:10 53.36213 -2.28066 255 ft 15 kts 134°
2026-05-04 21:11 53.36141 -2.27954 255 ft 14 kts 142°
2026-05-04 21:11 53.36057 -2.27845 257 ft 16 kts 141°
2026-05-04 21:11 53.35965 -2.27738 255 ft 15 kts 159°
2026-05-04 21:11 53.35858 -2.27732 254 ft 17 kts 184°
2026-05-04 21:12 53.35750 -2.27656 250 ft 19 kts 161°
2026-05-04 21:12 53.35664 -2.27580 248 ft 16 kts 142°
2026-05-04 21:12 53.35634 -2.27430 247 ft 15 kts 55°
2026-05-04 21:12 53.35683 -2.27323 255 ft 9 kts 51°
2026-05-04 21:13 53.35728 -2.27230 255 ft 11 kts 50°
2026-05-04 21:13 53.35783 -2.27117 255 ft 14 kts 51°
2026-05-04 21:13 53.35838 -2.26971 256 ft 16 kts 56°
2026-05-04 21:13 53.35904 -2.26821 256 ft 17 kts 56°
2026-05-04 21:14 53.35977 -2.26657 256 ft 18 kts 51°
2026-05-04 21:14 53.36061 -2.26484 256 ft 20 kts 51°
2026-05-04 21:14 53.36148 -2.26306 255 ft 16 kts 50°
2026-05-04 21:14 53.36232 -2.26174 255 ft 15 kts 52°
2026-05-04 21:15 53.36268 -2.26029 255 ft 13 kts 95°
2026-05-04 21:15 53.36289 -2.25870 256 ft 15 kts 85°
2026-05-04 21:15 53.36241 -2.25758 261 ft 11 kts 163°
2026-05-04 21:15 53.36192 -2.25809 259 ft 0 kts 233°
2026-05-04 21:16 53.36186 -2.25822 261 ft 14 kts 232°
2026-05-04 21:17 53.35965 -2.26278 263 ft 83 kts 231°
2026-05-04 21:17 53.35481 -2.27275 249 ft 136 kts 231°
2026-05-04 21:17 53.34805 -2.28686 368 ft 166 kts 232°
2026-05-04 21:17 53.34057 -2.30222 818 ft 178 kts 231°
2026-05-04 21:18 53.33273 -2.31830 1454 ft 177 kts 233°
2026-05-04 21:18 53.32523 -2.33457 2001 ft 180 kts 240°
2026-05-04 21:18 53.32104 -2.35528 2227 ft 198 kts 269°
2026-05-04 21:18 53.32328 -2.37888 2443 ft 218 kts 297°
2026-05-04 21:19 53.33307 -2.39936 2762 ft 238 kts 327°
2026-05-04 21:19 53.34880 -2.40994 3340 ft 250 kts 345°
2026-05-04 21:19 53.36574 -2.41831 4142 ft 257 kts 343°
2026-05-04 21:19 53.38275 -2.42735 4975 ft 262 kts 341°
2026-05-04 21:20 53.40023 -2.43686 5818 ft 265 kts 341°
2026-05-04 21:20 53.41790 -2.44653 6676 ft 268 kts 340°
2026-05-04 21:20 53.43581 -2.45640 7478 ft 272 kts 340°
2026-05-04 21:20 53.45420 -2.46439 8248 ft 278 kts 354°
2026-05-04 21:21 53.47347 -2.45978 8994 ft 286 kts 21°
2026-05-04 21:21 53.49012 -2.44187 9743 ft 292 kts 37°
2026-05-04 21:21 53.50620 -2.42052 10348 ft 302 kts 37°
2026-05-04 21:21 53.52326 -2.39774 10531 ft 324 kts 37°
2026-05-04 21:22 53.54144 -2.37349 10916 ft 338 kts 37°
2026-05-04 21:22 53.55936 -2.34961 11520 ft 342 kts 37°
2026-05-04 21:22 53.57797 -2.32486 12152 ft 346 kts 37°
2026-05-04 21:22 53.59702 -2.29948 12808 ft 350 kts 37°
2026-05-04 21:23 53.61622 -2.27388 13457 ft 354 kts 37°
2026-05-04 21:23 53.63573 -2.24785 14072 ft 357 kts 38°
2026-05-04 21:23 53.65506 -2.22208 14631 ft 360 kts 38°
2026-05-04 21:23 53.67482 -2.19572 15189 ft 364 kts 38°
2026-05-04 21:24 53.69475 -2.16914 15756 ft 366 kts 38°
2026-05-04 21:24 53.71475 -2.14240 16310 ft 370 kts 38°
2026-05-04 21:24 53.73557 -2.11673 16879 ft 372 kts 30°
2026-05-04 21:24 53.75875 -2.09751 17446 ft 373 kts 19°
2026-05-04 21:25 53.78375 -2.08505 17996 ft 375 kts 13°
2026-05-04 21:25 53.80921 -2.07363 18506 ft 379 kts 13°
2026-05-04 21:25 53.83481 -2.06205 18994 ft 382 kts 14°
2026-05-04 21:25 53.86062 -2.05028 19508 ft 385 kts 14°
2026-05-04 21:26 53.88655 -2.03843 20018 ft 388 kts 14°
2026-05-04 21:26 53.91239 -2.02666 20526 ft 390 kts 14°
2026-05-04 21:26 53.93903 -2.01452 20995 ft 393 kts 14°
2026-05-04 21:26 53.96523 -2.00256 21460 ft 395 kts 14°
2026-05-04 21:27 53.99187 -1.99036 21930 ft 397 kts 14°
2026-05-04 21:27 54.01853 -1.97812 22392 ft 400 kts 14°
2026-05-04 21:27 54.04548 -1.96576 22874 ft 402 kts 14°
2026-05-04 21:27 54.07255 -1.95337 23008 ft 400 kts 14°
2026-05-04 21:28 54.09910 -1.94115 23036 ft 391 kts 14°
2026-05-04 21:28 54.12535 -1.92904 23034 ft 390 kts 14°
2026-05-04 21:28 54.15147 -1.91704 23038 ft 389 kts 14°
2026-05-04 21:28 54.17745 -1.90513 23032 ft 389 kts 13°
2026-05-04 21:29 54.20356 -1.89312 23032 ft 389 kts 14°
2026-05-04 21:29 54.22965 -1.88111 23032 ft 388 kts 14°
2026-05-04 21:29 54.25570 -1.86908 23035 ft 387 kts 13°
2026-05-04 21:29 54.28159 -1.85705 23038 ft 385 kts 14°
2026-05-04 21:30 54.30755 -1.84495 23030 ft 385 kts 13°
2026-05-04 21:30 54.33352 -1.83390 23038 ft 384 kts
2026-05-04 21:30 54.36003 -1.82965 23037 ft 383 kts
2026-05-04 21:30 54.38671 -1.82817 23041 ft 383 kts
2026-05-04 21:31 54.44010 -1.82510 23043 ft 383 kts
2026-05-04 21:31 54.46677 -1.82353 23047 ft 383 kts
2026-05-04 21:31 54.49312 -1.82197 23050 ft 383 kts
2026-05-04 21:32 54.51986 -1.82040 23049 ft 384 kts
2026-05-04 21:32 54.54659 -1.81882 23051 ft 384 kts
2026-05-04 21:32 54.57332 -1.81723 23054 ft 384 kts
2026-05-04 21:32 54.60005 -1.81562 23053 ft 384 kts
2026-05-04 21:33 54.62645 -1.81399 23052 ft 384 kts
2026-05-04 21:33 54.65317 -1.81236 23055 ft 384 kts
2026-05-04 21:33 54.67991 -1.81071 23058 ft 384 kts
2026-05-04 21:33 54.70659 -1.80905 23057 ft 384 kts
2026-05-04 21:34 54.73335 -1.80742 23057 ft 384 kts
2026-05-04 21:34 54.76006 -1.80581 23063 ft 384 kts
2026-05-04 21:34 54.78684 -1.80422 23062 ft 384 kts
2026-05-04 21:34 54.81351 -1.80264 23061 ft 384 kts
2026-05-04 21:35 54.84016 -1.80105 23060 ft 384 kts
2026-05-04 21:35 54.86646 -1.79944 23058 ft 383 kts
2026-05-04 21:35 54.89321 -1.79781 23056 ft 383 kts
2026-05-04 21:35 54.91983 -1.79621 23059 ft 383 kts
2026-05-04 21:36 54.94552 -1.79472 23062 ft 383 kts
2026-05-04 21:36 54.97223 -1.79317 23061 ft 383 kts
2026-05-04 21:36 54.99886 -1.79155 23068 ft 383 kts
2026-05-04 21:36 55.02530 -1.78986 23065 ft 383 kts
2026-05-04 21:37 55.05199 -1.78816 23062 ft 383 kts 360°
2026-05-04 21:37 55.07868 -1.78650 23061 ft 383 kts 360°
2026-05-04 21:37 55.10543 -1.78482 23062 ft 383 kts
2026-05-04 21:37 55.13222 -1.78314 23055 ft 383 kts 360°
2026-05-04 21:38 55.15858 -1.78153 23054 ft 383 kts 360°
2026-05-04 21:38 55.18534 -1.77993 23059 ft 383 kts 360°
2026-05-04 21:38 55.21210 -1.77832 23061 ft 383 kts 360°
2026-05-04 21:38 55.23884 -1.77669 23059 ft 383 kts
2026-05-04 21:39 55.26518 -1.77502 23062 ft 383 kts 359°
2026-05-04 21:39 55.29183 -1.77331 23059 ft 383 kts 359°
2026-05-04 21:39 55.31853 -1.77163 23061 ft 383 kts 359°
2026-05-04 21:39 55.34521 -1.76997 23059 ft 383 kts 359°
2026-05-04 21:40 55.37188 -1.76827 23052 ft 383 kts 359°
2026-05-04 21:40 55.39855 -1.76659 23050 ft 383 kts 359°
2026-05-04 21:40 55.42524 -1.76496 23047 ft 383 kts 359°
2026-05-04 21:40 55.45159 -1.76335 23046 ft 383 kts 359°
2026-05-04 21:41 55.47833 -1.76169 23048 ft 383 kts 359°
2026-05-04 21:41 55.50492 -1.76004 23048 ft 383 kts 359°
2026-05-04 21:41 55.53172 -1.75834 23059 ft 383 kts 359°
2026-05-04 21:41 55.55835 -1.75662 23056 ft 383 kts 359°
2026-05-04 21:42 55.58475 -1.75492 23050 ft 383 kts 359°
2026-05-04 21:42 55.61141 -1.75324 23049 ft 383 kts 359°
2026-05-04 21:42 55.62907 -1.75213 23051 ft 383 kts 359°
2026-05-04 21:42 55.65571 -1.75044 23050 ft 383 kts 359°
2026-05-04 21:43 55.68236 -1.74875 23049 ft 382 kts 359°
2026-05-04 21:43 55.71768 -1.74651 23047 ft 382 kts 359°
2026-05-04 21:43 55.73566 -1.74536 23045 ft 382 kts 359°
2026-05-04 21:43 55.76226 -1.74368 23046 ft 382 kts 359°
2026-05-04 21:44 55.78866 -1.74199 23049 ft 382 kts 359°
2026-05-04 21:44 55.81515 -1.74032 22932 ft 379 kts 359°
2026-05-04 21:44 55.84121 -1.73866 22646 ft 371 kts 359°
2026-05-04 21:44 55.86709 -1.73699 22189 ft 369 kts 359°
2026-05-04 21:45 55.89272 -1.73532 21733 ft 367 kts 359°
2026-05-04 21:45 55.91778 -1.73638 21293 ft 362 kts 350°
2026-05-04 21:45 55.94237 -1.74470 20858 ft 358 kts 345°
2026-05-04 21:45 55.96677 -1.75382 20424 ft 356 kts 346°
2026-05-04 21:46 55.99099 -1.76276 19995 ft 354 kts 346°
2026-05-04 21:46 56.01509 -1.77160 19574 ft 352 kts 346°
2026-05-04 21:46 56.03909 -1.78042 19156 ft 350 kts 346°
2026-05-04 21:46 56.06297 -1.78926 18741 ft 348 kts 346°
2026-05-04 21:47 56.08641 -1.79793 18347 ft 347 kts 346°
2026-05-04 21:47 56.11004 -1.80669 17887 ft 345 kts 346°
2026-05-04 21:47 56.13349 -1.81543 17432 ft 343 kts 346°
2026-05-04 21:47 56.15681 -1.82415 16980 ft 341 kts 346°
2026-05-04 21:48 56.18002 -1.83281 16534 ft 339 kts 346°
2026-05-04 21:48 56.20308 -1.84139 16096 ft 337 kts 346°
2026-05-04 21:48 56.22576 -1.84981 15679 ft 336 kts 346°
2026-05-04 21:48 56.24861 -1.85832 15245 ft 334 kts 346°
2026-05-04 21:49 56.27134 -1.86682 14825 ft 333 kts 346°
2026-05-04 21:49 56.29401 -1.87529 14416 ft 331 kts 346°
2026-05-04 21:49 56.31658 -1.88372 14007 ft 330 kts 346°
2026-05-04 21:49 56.33901 -1.89211 13572 ft 329 kts 346°
2026-05-04 21:50 56.36114 -1.90044 13116 ft 328 kts 346°
2026-05-04 21:50 56.38343 -1.90886 12671 ft 327 kts 346°
2026-05-04 21:50 56.40573 -1.91729 12228 ft 326 kts 346°
2026-05-04 21:50 56.42790 -1.92567 11793 ft 325 kts 346°
2026-05-04 21:51 56.44995 -1.93399 11464 ft 320 kts 347°
2026-05-04 21:51 56.47110 -1.94194 11278 ft 301 kts 347°
2026-05-04 21:51 56.49130 -1.94956 10831 ft 293 kts 346°
2026-05-04 21:51 56.51093 -1.95702 10287 ft 290 kts 346°
2026-05-04 21:52 56.53068 -1.96453 9767 ft 286 kts 347°
2026-05-04 21:52 56.54999 -1.97187 9239 ft 281 kts 346°
2026-05-04 21:52 56.56902 -1.97914 8700 ft 278 kts 346°
2026-05-04 21:52 56.58791 -1.98637 8160 ft 274 kts 346°
2026-05-04 21:53 56.60652 -1.99351 7625 ft 271 kts 346°
2026-05-04 21:53 56.62490 -2.00052 7099 ft 269 kts 346°
2026-05-04 21:53 56.64290 -2.00736 6588 ft 266 kts 346°
2026-05-04 21:53 56.66100 -2.01429 6053 ft 263 kts 346°
2026-05-04 21:54 56.67880 -2.02112 5540 ft 260 kts 346°
2026-05-04 21:54 56.69636 -2.02784 5049 ft 255 kts 347°
2026-05-04 21:54 56.71344 -2.03438 4538 ft 251 kts 347°
2026-05-04 21:54 56.73045 -2.04090 4024 ft 249 kts 347°
2026-05-04 21:55 56.74738 -2.04740 3520 ft 246 kts 348°
2026-05-04 21:55 56.76354 -2.05361 3388 ft 228 kts 348°
2026-05-04 21:55 56.77851 -2.05936 3257 ft 211 kts 348°
2026-05-04 21:55 56.79242 -2.06471 3056 ft 199 kts 348°
2026-05-04 21:56 56.80586 -2.06989 2687 ft 196 kts 348°
2026-05-04 21:56 56.81866 -2.07486 2568 ft 180 kts 348°
2026-05-04 21:56 56.83053 -2.07945 2346 ft 170 kts 347°
2026-05-04 21:56 56.84191 -2.08383 2006 ft 168 kts 347°
2026-05-04 21:57 56.85359 -2.08837 2005 ft 173 kts 346°
2026-05-04 21:57 56.86543 -2.09299 2002 ft 174 kts 346°
2026-05-04 21:57 56.87733 -2.09764 2001 ft 175 kts 347°
2026-05-04 21:57 56.88925 -2.10230 2001 ft 175 kts 346°
2026-05-04 21:58 56.90107 -2.10690 2003 ft 174 kts 346°
2026-05-04 21:58 56.91294 -2.11151 1997 ft 174 kts 346°
2026-05-04 21:58 56.92488 -2.11534 1997 ft 175 kts 353°
2026-05-04 21:58 56.93708 -2.11563 1996 ft 176 kts
2026-05-04 21:59 56.94930 -2.11470 1994 ft 175 kts
2026-05-04 21:59 56.96155 -2.11383 2001 ft 176 kts
2026-05-04 21:59 56.97384 -2.11299 2001 ft 176 kts
2026-05-04 21:59 56.98595 -2.11214 2003 ft 176 kts
2026-05-04 22:00 56.99825 -2.11127 2004 ft 177 kts
2026-05-04 22:00 57.01055 -2.11039 2005 ft 176 kts
2026-05-04 22:00 57.02263 -2.10952 1997 ft 168 kts 360°
2026-05-04 22:00 57.03419 -2.10871 1997 ft 164 kts
2026-05-04 22:01 57.04537 -2.10791 1993 ft 156 kts
2026-05-04 22:01 57.05583 -2.10711 1992 ft 146 kts 360°
2026-05-04 22:01 57.06589 -2.10638 1996 ft 144 kts 360°
2026-05-04 22:01 57.07565 -2.10702 1996 ft 140 kts 341°
2026-05-04 22:02 57.08486 -2.11281 2001 ft 140 kts 339°
2026-05-04 22:02 57.09405 -2.11897 2006 ft 140 kts 337°
2026-05-04 22:02 57.10302 -2.12528 2003 ft 139 kts 337°
2026-05-04 22:02 57.11204 -2.13177 1931 ft 139 kts 337°
2026-05-04 22:03 57.12103 -2.13830 1798 ft 138 kts 337°
2026-05-04 22:03 57.13002 -2.14487 1636 ft 139 kts 336°
2026-05-04 22:03 57.13899 -2.15145 1455 ft 138 kts 336°
2026-05-04 22:03 57.14794 -2.15802 1254 ft 139 kts 336°
2026-05-04 22:04 57.15681 -2.16454 1065 ft 139 kts 335°
2026-05-04 22:04 57.16585 -2.17119 860 ft 140 kts 336°
2026-05-04 22:04 57.17499 -2.17792 673 ft 142 kts 336°
2026-05-04 22:04 57.18428 -2.18476 476 ft 144 kts 336°
2026-05-04 22:05 57.19356 -2.19160 292 ft 143 kts 337°
2026-05-04 22:05 57.20232 -2.19813 217 ft 126 kts 337°
2026-05-04 22:05 57.20819 -2.20260 212 ft 31 kts 340°
2026-05-04 22:05 57.21181 -2.20434 208 ft 157 kts 345°